Theta_e
312 310 310 310 308 308 311 312 314 312 313 311 311 311 314 315 316 317 317 311 311 312
311 311 311 312 312 311 313 312 314 313 312 310 311 314 317 317 316 317 316 313 316 317
309 312 312 312 312 313 313 313 313 312 312 313 314 316 318 316 314 313 314 314 315 316
310 312 314 313 311 312 314 313 311 311 312 313 311 312 316 317 316 314 316 317 316 315
309 310 311 313 312 313 313 313 312 312 312 313 313 316 315 314 311 311 310 313 314 313
310 309 309 310 312 313 313 313 312 311 311 312 313 314 314 315 314 313 313 313 312 312
313 311 310 313 312 313 313 313 312 311 311 312 312 313 313 314 314 314 314 315 315 314
315 316 315 316 313 314 314 313 312 311 312 313 312 311 312 313 313 314 314 315 314 316
315 315 316 315 315 314 314 313 313 312 312 313 311 303 305 310 315 314 314 314 315 316
313 314 315 315 314 313 313 313 313 312 311 311 311 300 300 303 317 316 316 316 316 314
314 310 314 314 314 314 315 314 313 313 312 311 307 299 299 302 316 316 315 314 314 313
314 312 307 308 314 317 316 316 315 312 310 309 309 297 297 305 316 315 316 316 317 316
315 314 311 308 312 316 317 316 315 313 311 304 309 297 296 301 310 314 312 316 316 306
316 314 314 310 310 312 314 316 316 315 313 312 306 306 295 295 307 307 310 312 314 315
Wind_Speed
9 7 6 7 6 6 6 7 9 7 7 7 6 6 6 4 3 3 5 4 3 2
8 8 8 7 6 6 7 6 7 7 7 6 7 6 4 5 6 6 6 4 4 5
7 7 7 6 7 7 7 8 7 8 8 7 8 8 6 6 6 5 5 5 6 6
7 8 7 6 6 7 6 6 7 8 8 8 8 6 7 8 9 8 7 7 7 8
6 7 7 7 6 6 6 6 6 7 6 7 7 8 9 8 6 7 6 6 6 6
6 6 6 6 7 6 6 7 6 6 6 7 7 7 6 7 7 7 7 7 6 5
8 5 4 5 6 6 6 7 6 6 6 6 6 6 6 6 6 6 6 6 6 6
7 7 6 6 5 6 6 6 6 6 5 5 5 5 5 5 5 5 5 5 4 5
8 7 6 5 6 5 6 6 6 6 5 6 4 7 7 6 3 3 4 4 4 3
7 6 6 5 5 5 5 4 5 5 5 5 5 9 7 6 2 3 3 3 2 2
6 6 5 4 4 4 3 4 4 5 5 5 5 9 7 5 4 3 3 4 4 4
6 5 4 3 4 3 3 3 3 4 5 5 5 7 8 6 3 3 5 4 5 5
6 6 6 5 4 3 3 3 2 3 3 3 5 3 7 7 4 4 4 5 5 6
6 6 5 5 3 3 3 4 4 4 3 4 4 4 5 6 5 5 6 4 3 4
Wind_Direction
350 344 337 353 347 328 346 344 358 338 31 0 345 315 324 41 9 69 95 106 87 104
348 341 344 346 337 341 353 349 355 358 13 346 343 349 16 56 66 77 89 86 101 81
324 338 342 341 352 357 358 355 2 2 3 9 7 358 45 83 70 72 68 67 84 74
337 324 343 354 358 2 357 0 6 2 5 15 12 5 55 68 63 59 67 65 70 73
330 336 352 0 6 358 2 8 1 1 10 21 26 14 52 53 50 51 53 56 64 63
332 356 356 357 357 0 359 4 5 9 17 21 25 31 46 41 41 45 49 49 56 63
346 352 336 348 349 3 354 14 21 24 26 24 31 37 36 36 44 48 54 58 64 69
352 356 345 357 2 357 21 29 31 32 35 29 37 29 19 39 47 50 61 63 61 62
354 11 14 19 23 32 43 46 44 40 33 41 47 3 4 344 41 45 48 52 57 55
1 16 24 19 25 37 36 28 29 23 13 18 7 355 329 319 299 331 356 342 329 307
13 4 14 16 29 18 2 6 8 12 11 9 29 358 346 322 287 292 288 277 273 271
349 347 359 14 330 356 335 344 6 7 6 10 24 5 356 319 291 286 280 270 267 287
343 348 356 345 340 329 293 307 316 335 351 360 346 49 356 347 328 316 307 281 276 219
334 331 330 327 306 307 306 288 281 290 300 306 332 334 358 350 322 333 325 337 349 20